Regional Weather Roundup
Issued by NWS Upton, NY

Current Version | Previous Version | Text Only | Print | Product List | Glossary Off
Versions: 1 2 3 4 5 6 7 8 9 10 11 12 13 14 15 16 17 18 19 20 21 22 23 24 25 26 27 28 29 30 31 32 33 34 35 36 37 38 39 40 41 42 43 44 45 46 47 48 49 50
000 ASUS41 KOKX 252308 RWROKX REGIONAL WEATHER ROUNDUP NATIONAL WEATHER SERVICE NEW YORK NY 700 PM EDT SAT MAR 25 2017 NOTE: "FAIR" INDICATES FEW OR NO CLOUDS BELOW 12,000 FEET WITH NO SIGNIFICANT WEATHER AND/OR OBSTRUCTIONS TO VISIBILITY. NYZ071-072-176-178-NJZ106-104-260000- NEW YORK CITY METRO AREA CITY SKY/WX TMP DP RH WIND PRES REMARKS Central Park CLOUDY 50 39 66 E3 30.30S Wall St Helipt CLOUDY 48 39 71 NE5 30.30R LaGuardia APRT CLOUDY 51 38 60 E6 30.28R Kennedy INTL CLOUDY 50 41 71 SE9 30.29R Breezy Point N/A 43 N/A N/A SE13 N/A Newark/Liberty CLOUDY 50 40 68 CALM 30.28S Teterboro LGT RAIN 48 39 71 VRB3 30.27S $$ NYZ177-179-078>081-260000- LONG ISLAND NEW YORK CITY SKY/WX TMP DP RH WIND PRES REMARKS Jones Beach N/A 41 N/A N/A SE14 N/A Matinecock PT N/A 43 N/A N/A E12 N/A Farmingdale CLOUDY 47 39 74 SE5 30.27F MacArthur/ISP CLOUDY 45 39 79 E7 30.28S Shirley CLOUDY 44 38 79 SE3 30.30R Westhampton CLOUDY 42 37 82 E5 30.31R East Hampton CLOUDY 41 37 83 NE6 30.31R Montauk N/A 41 37 86 NE7 30.32R $$ NYZ052-065-067-260000- HUDSON VALLEY CITY SKY/WX TMP DP RH WIND PRES REMARKS White Plains CLOUDY 45 41 86 N5 30.28R Newburgh CLOUDY 37 37 100 NE12 30.33R WCI 30 Montgomery CLOUDY 38 35 89 N12 30.32R WCI 30 Poughkeepsie CLOUDY 36 34 92 N8 30.33R WCI 30 Albany CLOUDY 38 32 79 N6 30.38R WCI 33 $$ NJZ001-105-106-008-010-013-015-019>022-104-260000- NEW JERSEY CITY SKY/WX TMP DP RH WIND PRES REMARKS Newark/Liberty CLOUDY 50 40 68 CALM 30.28S Teterboro LGT RAIN 48 39 71 VRB3 30.27S Caldwell LGT RAIN 46 41 82 N3 30.29S Somerville MOCLDY 51 40 65 E3 30.25S Linden CLOUDY 49 39 66 CALM 30.28S Sussex CLOUDY 40 37 89 NE9 30.31R WCI 34 Andover N/A 40 38 93 NE6 30.28R Trenton CLOUDY 52 42 69 E10 30.27R Millville CLOUDY 62 49 62 E15 30.20R Atlantic City CLOUDY 52 42 69 NE17G28 30.24R Wrightstown CLOUDY 46 42 86 E13 30.24R Toms River CLOUDY 44 42 93 NE8 30.30R Belmar LGT RAIN 44 39 82 E14 30.30R $$ PAZ047>061-062-071-260000- EASTERN PENNSYLVANIA CITY SKY/WX TMP DP RH WIND PRES REMARKS Philadelphia CLOUDY 58 50 75 NE16G31 30.24R Allentown MOCLDY 52 39 61 E15 30.24R Scranton CLOUDY 44 43 96 NE5 30.26R $$ CTZ002-004>006-009-010-012-RIZ004-006-007-MAZ004-011-015-260000- SOUTHERN NEW ENGLAND IN CT CITY SKY/WX TMP DP RH WIND PRES REMARKS Bradley INTL CLOUDY 37 35 92 N8 30.34R WCI 31 Hartford CLOUDY 39 36 89 N12 30.34R WCI 32 Danbury CLOUDY 42 40 92 N9 30.32R Wtrbury/Oxford CLOUDY 37 34 87 NE9 30.32R WCI 31 Bridgeport CLOUDY 44 38 79 N9 30.31R Meriden CLOUDY 41 36 82 N13 30.35R New Haven CLOUDY 41 38 89 N14 30.31R Chester NOT AVBL Groton LGT RAIN 43 37 79 N7 30.31R Wilimantic CLOUDY 42 39 89 CALM 30.32R IN RI CITY SKY/WX TMP DP RH WIND PRES REMARKS Providence CLOUDY 40 36 86 NE8 30.33R WCI 34 Block Island LGT RAIN 39 37 92 NE12 30.32R WCI 32 Westerly LGT RAIN 43 38 82 N3 30.31S IN MA CITY SKY/WX TMP DP RH WIND PRES REMARKS Boston CLOUDY 38 35 89 N5 30.33R WCI 34 Worcester CLOUDY 35 33 92 CALM 30.29R FOG Westfield CLOUDY 37 35 92 NE3 30.33R Provincetown CLOUDY 37 34 89 N8 30.33R WCI 31 Nantucket CLOUDY 38 34 85 N13 30.31R WCI 30 $$ ANZ330-335-338-340-345-350-353-355-260000- COASTAL MARINE OBSERVATIONS STATION/POSITION TIME SKY/WX TEMP WIND PRES VSBY WAVE AIR SEA DIR/SP/G HT/PER (UTC) (F) (DEG/KT/KT) (MB) (MI) (FT/S) NY HARB ENTRANCE 2150 43 42 80/ 14/ 17 1024.8 4/ 8 20 S FIRE ISLAND 2250 42 40 80/ 14/ 17 1025.1 5/ 8 GREAT SOUTH BAY NOT AVBL 23 SSW MONTAUK P 2150 42 43 1026.0 5/ 8 15 E BARNEGAT LI 2230 43 N/A 4/ 7 HUDSON CANYON 2150 45 46 50/ 16/ 19 1024.1 6/ 8 KINGS POINT 2230 48 39 1024.9 EXECUTION ROCKS NOT AVBL CENTRAL LI SOUND 2230 40 20/ 6/ 8 N/A 1 EASTERN LI SOUND NOT AVBL ROBBINS REEF 2230 48 50/ 6/ 8 1025.4 $$ >>>>>>>>>>>>>>>>>>>>>>>>>>>> KEY <<<<<<<<<<<<<<<<<<<<<<<<<<< > < > SKY/WX - Sky Condition/Present Weather < > TMP - Temperature in Fahrenheit < > DP - Dew Point in Fahrenheit < > RH - Relative Humidity in Percent < > WIND - Direction (from) and Speed in MPH < > PRES - Mean Sea Level Pressure (inches of Hg) < > WCI - Wind Chill Index < > VSB - VISIBILITY IN MILES < > HX - HEAT INDEX < > TC - TEMPERATURE IN CELSIUS < > VRB - VARIABLE WIND DIRECTION < > < >>>>>>>>>>>>>>>>>>>>>>>>>>>> KEY <<<<<<<<<<<<<<<<<<<<<<<<<<<

USA.gov is the U.S. government's official web portal to all federal, state and local government web resources and services.